Find Starlink 33664

NORAD ID: 63415 Int'l Des: 2025-065 Owner: SPXS Country: US Constellation: starlink operational
LEOCIRCULAR

Current View

Loading 3D Globe...

About Starlink 33664

Starlink 33664 (NORAD 63415) is a starlink constellation satellite (v2 mini) launched Mar 31, 2025 by SPXS of US. It operates in LEO, CIRCULAR orbit with a mass of 575.00 kg.

About Starlink 33664

Description loading...

Upcoming Passes

Passes for default location (London). Set your location on the main map for personalized predictions.

Altitude History

Loading altitude history...

Two-Line Element Set

1 63415U 25065S 26167.57720653 .00013548 00000-0 50085-3 0 9996
2 63415 43.0014 268.5595 0000994 280.1357 79.9382 15.27586473 67965
Epoch: Jun 16, 2026 • Age: 41 hours

Current Status

Altitude 482.8 km
Velocity 7.63 km/s
Sub-Earth Point 20.53°N, 39.17°E
Launch Date Mar 31, 2025
Age 1.2 years
Type internet

Technical Details

Classification Payload
Mass 575.00 kg
Dry Mass 530.00 kg
Total Mass 575.00 kg
Length 0.30 m
Diameter 4.10 m
Span 29.00 m
Shape Box + pan
Manufacturer SPXS
Bus Type Starlink V2MO
Phase Status In Orbit
Owner/State SPXS/US

Most Searched